Location: Leuk
(46.3174°N, 7.6341°E)
Time: 20:58:41
(UTC+00:00)

Lacrosse 5 - Pass Details

Date: 09 March 2021
Orbit: 718 x 721 km, 57.0° (Epoch: 02 April)

Event Time Altitude Azimuth Distance (km) Brightness Sun altitude
Exits shadow 02:40:08 33° 88° (E) 1,195 3.3 -32.9°
Drops below altitude 10° 02:43:08 10° 108° (ESE) 2,199 4.8 -32.4°
Sets 02:45:34 0° 113° (ESE) 3,117 5.6 -32.1°
